LKPD

Pardubice Airport

Airport
ICAO code
LKPD
IATA Code
PED
Summary
ICAO Region
EUR
ICAO Territory
Location

Pardubice, Czech Republic

Serving
Pardubice
Elevation
741 ft
Coordinates
50° 0' 56" N , 15° 44' 24" E
KCC
Metar
LKPD 202300Z 25007KT 9999 -RA OVC036 07/03 Q1025 RMK BLU

Description

Military airport (permitted to handle civil air traffic) serving the city of Pardubice, Czech Republic. Mainly used for charter flights.

Climatology

Humid Continental climate (Köppen climate classification Dfb) - Variable weather patterns and a large seasonal temperature variance. Summers are often warm and humid with frequent thunderstorms and winters can be very cold with frequent snowfall and persistent snow cover.

Runways

Designator Length Width Surface Rops
9/27 2500 75 CON No/No

Airport map

Aerial View

SKYbrary Partners:

Safety knowledge contributed by: